"Pseudo-MPEC" for P110e37

Created 2020 May 25 15:07:21 UT using Find_Orb

Click here for an explanation of pseudo-MPECs

 
 Astrometry: 
     P110e37  C2020 05 15WOyfps4xgYO`GAstrometryXqSv)He]H_h+/+HRqZ'JRxiPeH%I8F51
     P110e37  C2020 05 15P4YK,xb.7Q:G6SaP[2Qredacted;g0@qOBQ.lD8n2qs?J\'agu.#F51
     P110e37  C2020 05 158beBwQs;m5D6AR(eDPw;click$pe`x''Mi*?+Ib\T5o)j9s1EUviF51
     P110e37  C2020 05 15+s_/D$Iherev+PIO5iZ^+=9@qb#aVvr!QHEfor7B*@bJHewi.W(9F51
     P110e37  C2020 05 20tuZF]]-94oe(:VJxWD`'`b[L_KZ=-tk(.7ekyYYYNEahUf@20Z9qF51
     P110e37  C2020 05 20COC(TWyaQEi_6.+5gdn;cV]sB#+R^yI[(Fc\$=w/fexplanationF51
     P110e37 ^C2020 05 20.34940614 34 23.612-29 11 12.06   ~5L27 21.76GVNEOCP568
     P110e37 ^C2020 05 20.35035314 34 23.549-29 11 11.16   ~5L27 21.83GVNEOCP568
     P110e37 ^C2020 05 20.35130214 34 23.484-29 11 10.15   ~5L27 21.73GVNEOCP568
     P110e37  C2020 05 20IRt.BL6W6F;cBrnO0mRkuyU1WL.fht5@ICb?JSv`ykIvqKN?#@:VF51
     P110e37  C2020 05 20O3!4TicCcfA+kY[+2'.bE%3sDk99GBs5C-ifJ2P6-0AxCW)/^kr)F51

Station data:
(568) Mauna Kea  (N19.826116 W155.472200)  US/Hawaii.
(F51) Pan-STARRS 1, Haleakala  (N20.707235 W156.255910)  US/Hawaii.
   Observers N. Primak, A. Schultz, S. Watters, J. Thiel, T. Goggia. Measurer
   PS1 Science Consortium. 1.8-m Ritchey-Chrétien + CCD.

Orbital elements:  P110e37
   Perihelion 2021 Jul 1.470294 +/- 369 TT = 11:17:13 (JD 2459396.970294)
Epoch 2020 May 20.0 TT = JDT 2458989.5   Earth MOID: 0.6256   AutoNEOCP
M 207.04227512 +/- 100              (J2000 ecliptic)
n   0.37538374 +/- 0.146            Peri.  138.25836 +/- 60
a   1.90320574 +/- 0.494            Node   252.73698 +/- 13
e   0.1695373 +/- 0.187             Incl.   19.94469 +/- 25
P   2.63/959.00d           H 19.4   G  0.15   U 11.5  SR
q 1.58054121 +/- 0.602    Q 2.22587028 +/- 2.42
From 11 observations 2020 May 15-20; mean residual 0".10
Residuals in arcseconds: 
200515 F51  .09+  .21+    200520 F51  .02-  .04-    200520 568  .01+  .01-    
200515 F51  .07+  .00     200520 F51  .10+  .22+    200520 F51  .01+  .13-    
200515 F51  .04-  .01-    200520 568  .01+  .06-    200520 F51  .14-  .11+    
200515 F51  .12-  .20-    200520 568  .02+  .09-    

Ephemerides (geocentric):
Date (UTC) HH   RA              Dec         delta   r     elong  mag " sig PA
---- -- -- --  -------------   -----------  ------ ------ -----  --- ---- ---
2020 05 25 15  14 29 08.520   -27 43 32.46  1.2309 2.1955 156.0 22.2  230  41
2020 05 25 16  14 29 06.229   -27 42 50.79  1.2311 2.1955 156.0 22.2  233  41
2020 05 25 17  14 29 03.940   -27 42 09.12  1.2312 2.1955 156.0 22.2  235  41
2020 05 25 18  14 29 01.655   -27 41 27.46  1.2313 2.1954 155.9 22.2  238  41
2020 05 25 19  14 28 59.373   -27 40 45.80  1.2314 2.1954 155.9 22.2  241  41
2020 05 25 20  14 28 57.095   -27 40 04.13  1.2316 2.1954 155.8 22.2  244  41
2020 05 25 21  14 28 54.819   -27 39 22.47  1.2317 2.1953 155.8 22.2  247  41
2020 05 25 22  14 28 52.547   -27 38 40.81  1.2318 2.1953 155.8 22.2  249  40
2020 05 25 23  14 28 50.279   -27 37 59.15  1.2320 2.1953 155.7 22.2  252  40
2020 05 26 00  14 28 48.013   -27 37 17.49  1.2321 2.1953 155.7 22.2  255  40
2020 05 26 01  14 28 45.751   -27 36 35.83  1.2322 2.1952 155.6 22.2  258  40
2020 05 26 02  14 28 43.492   -27 35 54.18  1.2323 2.1952 155.6 22.2  261  40
2020 05 26 03  14 28 41.236   -27 35 12.52  1.2325 2.1952 155.5 22.2  264  40
2020 05 26 04  14 28 38.984   -27 34 30.87  1.2326 2.1951 155.5 22.2  267  40
2020 05 26 05  14 28 36.735   -27 33 49.21  1.2327 2.1951 155.5 22.2  270  40
2020 05 26 06  14 28 34.489   -27 33 07.56  1.2329 2.1951 155.4 22.2  273  40
2020 05 26 07  14 28 32.247   -27 32 25.91  1.2330 2.1950 155.4 22.2  275  40
2020 05 26 08  14 28 30.008   -27 31 44.27  1.2331 2.1950 155.3 22.2  278  40
2020 05 26 09  14 28 27.772   -27 31 02.62  1.2333 2.1950 155.3 22.2  281  40
2020 05 26 10  14 28 25.540   -27 30 20.98  1.2334 2.1949 155.3 22.2  284  40
2020 05 26 11  14 28 23.311   -27 29 39.33  1.2335 2.1949 155.2 22.2  287  40
2020 05 26 12  14 28 21.085   -27 28 57.69  1.2337 2.1949 155.2 22.2  291  40
2020 05 26 13  14 28 18.862   -27 28 16.06  1.2338 2.1948 155.1 22.2  294  40
2020 05 26 14  14 28 16.643   -27 27 34.42  1.2339 2.1948 155.1 22.2  297  40
2020 05 26 15  14 28 14.428   -27 26 52.79  1.2341 2.1948 155.1 22.2  300  40
2020 05 26 16  14 28 12.215   -27 26 11.16  1.2342 2.1947 155.0 22.2  303  39
2020 05 26 17  14 28 10.006   -27 25 29.53  1.2343 2.1947 155.0 22.2  306  39
2020 05 26 18  14 28 07.800   -27 24 47.90  1.2345 2.1947 154.9 22.2  309  39
2020 05 26 19  14 28 05.598   -27 24 06.28  1.2346 2.1946 154.9 22.2  312  39
2020 05 26 20  14 28 03.399   -27 23 24.66  1.2347 2.1946 154.9 22.2  315  39
2020 05 26 21  14 28 01.203   -27 22 43.04  1.2349 2.1946 154.8 22.2  318  39
2020 05 26 22  14 27 59.011   -27 22 01.42  1.2350 2.1945 154.8 22.2  322  39
2020 05 26 23  14 27 56.822   -27 21 19.81  1.2352 2.1945 154.7 22.2  325  39
2020 05 27 00  14 27 54.636   -27 20 38.20  1.2353 2.1945 154.7 22.2  328  39
2020 05 27 01  14 27 52.454   -27 19 56.59  1.2354 2.1944 154.6 22.2  331  39
2020 05 27 02  14 27 50.275   -27 19 14.99  1.2356 2.1944 154.6 22.2  335  39
2020 05 27 03  14 27 48.100   -27 18 33.39  1.2357 2.1944 154.6 22.2  338  39
2020 05 27 04  14 27 45.928   -27 17 51.79  1.2359 2.1943 154.5 22.2  341  39
2020 05 27 05  14 27 43.759   -27 17 10.19  1.2360 2.1943 154.5 22.2  344  39
2020 05 27 06  14 27 41.594   -27 16 28.60  1.2361 2.1943 154.4 22.2  348  39
2020 05 27 07  14 27 39.432   -27 15 47.01  1.2363 2.1942 154.4 22.2  351  39
2020 05 27 08  14 27 37.274   -27 15 05.43  1.2364 2.1942 154.4 22.2  354  39
2020 05 27 09  14 27 35.119   -27 14 23.85  1.2366 2.1942 154.3 22.2  358  39
2020 05 27 10  14 27 32.967   -27 13 42.27  1.2367 2.1941 154.3 22.2  361  38
2020 05 27 11  14 27 30.819   -27 13 00.70  1.2368 2.1941 154.2 22.2  364  38
2020 05 27 12  14 27 28.674   -27 12 19.13  1.2370 2.1941 154.2 22.2  368  38
2020 05 27 13  14 27 26.532   -27 11 37.56  1.2371 2.1940 154.1 22.2  371  38
2020 05 27 14  14 27 24.394   -27 10 56.00  1.2373 2.1940 154.1 22.2  374  38